Location: Tierra del Sol
(32.6128°N, 116.3319°W)
Time: 02:30:01
(UTC-08:00)

Amateur Radio Satellites - All Passes

Search period start: 18 November 2017 02:00
Search period end: 19 November 2017 02:00
Location: Tierra del Sol, 32.6128°N, 116.3319°W

Satellite Date Start Highest point End Downlink Frequencies (MHz)
Time Altitude Azimuth
Gurwin Techsat 1B 18 Nov 02:05:26 02:10:32 48° 287° (WNW) 02:15:37 435.225
Oscar 19 18 Nov 02:09:46 02:14:11 29° 290° (WNW) 02:18:36 437.125/150
PCSat 18 Nov 02:10:45 02:12:46 12° 311° (NW) 02:14:48 145.827
MOZHAYETS 4 18 Nov 02:14:19 02:18:53 79° 76° (ENE) 02:23:27
ITAMSAT 1 18 Nov 02:16:38 02:19:13 14° 93° (E) 02:21:47 435.822/435.867
M-CUBED/EXP-1 PRIME 18 Nov 02:17:11 02:21:43 65° 106° (ESE) 02:26:19 437.505
CUBESAT XI-V 18 Nov 02:18:02 02:20:56 17° 68° (ENE) 02:23:50 437.345
AO-7 18 Nov 02:20:00 02:27:11 31° 99° (E) 02:34:18 .
RS-15 18 Nov 02:21:48 02:31:11 26° 40° (NE) 02:40:08 29.354- 29.394
BEESAT 3 18 Nov 02:31:55 02:35:43 47° 114° (ESE) 02:39:35 437.485
BEESAT 18 Nov 02:57:40 03:02:11 43° 260° (W) 03:06:44 436.000
ITUPSAT 1 18 Nov 03:05:01 03:09:25 37° 261° (W) 03:13:52 437.325
BEESAT 2 18 Nov 03:34:29 03:38:25 68° 116° (ESE) 03:42:26 435.950
nSIGHT-1 18 Nov 03:39:28 03:41:15 14° 32° (NNE) 03:43:02 .
CUBESAT XI-V 18 Nov 03:53:43 03:57:56 37° 262° (W) 04:02:12 437.345
ITAMSAT 1 18 Nov 03:53:51 03:58:56 55° 287° (WNW) 04:03:59 435.822/435.867
M-CUBED/EXP-1 PRIME 18 Nov 03:54:07 03:55:32 11° 298° (WNW) 03:56:59 437.505
YUBILEINY 18 Nov 03:54:33 03:59:13 16° 80° (E) 04:03:54 435.215
AO-85 18 Nov 04:06:02 04:09:47 53° 115° (ESE) 04:13:38 145.980
ISS 18 Nov 04:11:25 04:14:03 22° 37° (NE) 04:16:40 437.550
BEESAT 3 18 Nov 04:11:41 04:13:30 13° 309° (NW) 04:15:19 437.485
AO-7 18 Nov 04:12:06 04:20:01 50° 293° (WNW) 04:27:56 .
DOVE 4 18 Nov 04:20:26 04:25:24 45° 98° (E) 04:30:06 437.250
KKS-1 18 Nov 04:32:03 04:36:28 62° 259° (WSW) 04:40:55 437.445
RS-15 18 Nov 04:33:29 04:45:16 88° 246° (WSW) 04:56:23 29.354- 29.394
XW-2F 18 Nov 04:48:16 04:49:16 11° 93° (E) 04:50:15 145.980 - 146.000
CUTE-I 18 Nov 05:01:47 05:05:28 19° 95° (E) 05:09:06 437.470
STRAND 1 18 Nov 05:05:04 05:05:38 10° 63° (ENE) 05:06:13 437.568
STARS 18 Nov 05:06:20 05:10:44 67° 258° (WSW) 05:15:09 437.465
nSIGHT-1 18 Nov 05:14:36 05:17:41 49° 228° (SW) 05:20:46 .
KAITUO 1B 18 Nov 05:20:27 05:23:29 23° 96° (E) 05:26:31 145.475/437.950
XW-2D 18 Nov 05:25:48 05:29:25 41° 99° (E) 05:33:02 145.860 - 145.880
XW-2B 18 Nov 05:40:22 05:44:08 64° 101° (E) 05:47:54 145.730 - 145.750
YUBILEINY 18 Nov 05:46:05 05:54:48 83° 275° (W) 06:03:39 435.215
ISS 18 Nov 05:47:43 05:50:28 26° 231° (SW) 05:53:14 437.550
AO-85 18 Nov 05:49:42 05:50:31 11° 312° (NW) 05:51:21 145.980
HO-68 18 Nov 05:57:54 06:04:00 30° 97° (E) 06:10:04 435.675
DOVE 4 18 Nov 05:59:13 06:02:35 18° 293° (WNW) 06:05:51 437.250
LilacSat-2 18 Nov 06:03:23 06:07:07 52° 284° (WNW) 06:10:51 437.200
XW-2C 18 Nov 06:05:48 06:09:30 52° 284° (WNW) 06:13:12 145.795 - 145.815
NUDT-PHONESAT 18 Nov 06:10:38 06:14:19 70° 283° (WNW) 06:18:00 437.300
XW-2F 18 Nov 06:19:58 06:23:27 36° 286° (WNW) 06:26:56 145.980 - 146.000
CUTE 1.7 + AOD 2 18 Nov 06:28:02 06:32:11 49° 100° (E) 06:36:19 437.475
STRAND 1 18 Nov 06:38:56 06:44:06 79° 259° (WSW) 06:49:15 437.568
CUTE-I 18 Nov 06:40:34 06:45:37 43° 288° (WNW) 06:50:39 437.470
CUBEBUG 2 18 Nov 06:48:41 06:52:42 46° 99° (E) 06:56:40 437.445
RS-15 18 Nov 06:49:29 06:55:49 17° 261° (W) 07:02:02 29.354- 29.394
XW-2A 18 Nov 06:53:32 06:56:13 22° 97° (E) 06:58:56 145.665 - 145.685
KAITUO 1B 18 Nov 06:54:44 06:57:15 17° 289° (WNW) 06:59:45 145.475/437.950
XW-2D 18 Nov 07:02:48 07:03:08 10° 292° (WNW) 07:03:29 145.860 - 145.880
SEEDS 18 Nov 07:05:12 07:09:27 85° 101° (E) 07:13:42 437.485
AO-73 18 Nov 07:08:46 07:11:33 17° 95° (E) 07:14:21 145.935
FO-29 18 Nov 07:17:25 07:23:28 53° 71° (ENE) 07:30:19 435.910
AAUSAT CUBESAT 2 18 Nov 07:22:34 07:26:39 53° 99° (E) 07:30:44 437.432
SO-50 18 Nov 07:23:26 07:28:06 72° 62° (ENE) 07:32:48 436.795
Oscar 11 18 Nov 07:28:48 07:32:05 21° 95° (E) 07:35:20 .
HO-68 18 Nov 07:45:03 07:51:45 43° 292° (WNW) 07:58:25 435.675
YUBILEINY 18 Nov 07:49:20 07:52:53 13° 294° (WNW) 07:56:27 435.215
ZACube-1 18 Nov 07:50:35 07:54:42 72° 101° (E) 07:58:51 437.345
UWE-3 18 Nov 07:52:44 07:56:44 49° 285° (WNW) 08:00:43 435.000/436.395/437.385
CUTE 1.7 + AOD 2 18 Nov 08:06:15 08:07:31 11° 293° (WNW) 08:08:47 437.475
UNISAT 6 18 Nov 08:16:16 08:20:21 32° 73° (ENE) 08:24:23 437.425
TIGRISAT 18 Nov 08:21:31 08:25:39 33° 73° (ENE) 08:29:43 435.000
DELFI C3 18 Nov 08:25:52 08:28:31 17° 95° (E) 08:31:08 145.870
XW-2A 18 Nov 08:27:00 08:28:40 13° 290° (WNW) 08:30:21 145.665 - 145.685
CUBEBUG 2 18 Nov 08:27:47 08:28:50 11° 293° (WNW) 08:29:53 437.445
Max Valier Satellite 18 Nov 08:39:27 08:41:42 15° 95° (E) 08:43:58 145.860
PRISM 18 Nov 08:42:35 08:45:31 19° 70° (ENE) 08:48:28 437.425
AO-73 18 Nov 08:44:14 08:47:45 27° 288° (WNW) 08:51:16 145.935
EO-88 18 Nov 08:46:12 08:47:51 13° 94° (E) 08:49:29 145.990 - 145.960
FO-29 18 Nov 09:04:22 09:08:56 21° 269° (W) 09:13:54 435.910
Oscar 11 18 Nov 09:04:33 09:08:07 26° 288° (WNW) 09:11:40 .
PCSat 18 Nov 09:16:17 09:20:50 27° 57° (ENE) 09:25:20 145.827
FALCONSAT 3 18 Nov 09:41:48 09:45:05 30° 153° (SSE) 09:48:21 435.103
UNISAT 6 18 Nov 09:53:43 09:57:01 19° 265° (W) 10:00:18 437.425
TIGRISAT 18 Nov 09:59:07 10:02:18 18° 265° (W) 10:05:30 435.000
DELFI C3 18 Nov 09:59:50 10:03:12 26° 288° (WNW) 10:06:32 145.870
Max Valier Satellite 18 Nov 10:12:30 10:15:27 23° 288° (WNW) 10:18:24 145.860
PRISM 18 Nov 10:17:10 10:20:34 25° 263° (W) 10:24:01 437.425
EO-88 18 Nov 10:18:19 10:21:29 28° 287° (WNW) 10:24:39 145.990 - 145.960
DUCHIFAT 1 18 Nov 10:18:29 10:21:24 18° 70° (ENE) 10:24:18 145.980
EO-79 18 Nov 10:20:58 10:24:31 26° 72° (ENE) 10:28:04 145.935-145.965
NANOSAT C BR1 18 Nov 10:26:26 10:29:59 27° 72° (ENE) 10:33:32 145.865
POLYITAN 1 18 Nov 10:34:54 10:38:51 39° 74° (ENE) 10:42:48 437.675
AIST 2D 18 Nov 10:40:50 10:44:06 41° 261° (W) 10:47:24 435.315
LO-87 18 Nov 10:52:48 10:56:21 75° 102° (ESE) 10:59:51 145.935 - 145.965
QB50P2 18 Nov 10:57:35 11:01:51 87° 73° (ENE) 11:06:06 145.880/145.840
PCSat 18 Nov 10:59:21 11:04:12 34° 252° (WSW) 11:09:01 145.827
FALCONSAT 3 18 Nov 11:20:19 11:24:01 77° 347° (NNW) 11:27:43 435.103
ESTCUBE 1 18 Nov 11:22:12 11:26:44 77° 283° (WNW) 11:31:15 437.505/2401.250
BUGSAT 1 18 Nov 11:23:13 11:26:37 24° 71° (ENE) 11:30:01 437.445
SPROUT 18 Nov 11:42:56 11:46:53 37° 98° (E) 11:50:48 437.525
Oscar 19 18 Nov 11:43:23 11:47:28 25° 69° (ENE) 11:51:33 437.125/150
Gurwin Techsat 1B 18 Nov 11:44:01 11:47:30 18° 66° (ENE) 11:50:59 435.225
DUCHIFAT 1 18 Nov 11:53:09 11:56:48 28° 263° (W) 12:00:28 145.980
EO-79 18 Nov 11:57:05 12:00:11 20° 264° (W) 12:03:18 145.935-145.965
VELOX 1 18 Nov 11:57:06 12:01:09 34° 98° (E) 12:05:10 145.980
BEESAT 2 18 Nov 11:58:28 11:59:31 11° 49° (NE) 12:00:34 435.950
NANOSAT C BR1 18 Nov 12:02:33 12:05:37 19° 265° (W) 12:08:40 145.865
POLYITAN 1 18 Nov 12:12:41 12:14:43 13° 266° (W) 12:16:46 437.675
BEESAT 3 18 Nov 12:29:46 12:33:42 84° 243° (WSW) 12:37:32 437.485
AO-85 18 Nov 12:41:17 12:44:28 17° 52° (NE) 12:47:47 145.980
DX 1 18 Nov 12:52:43 12:56:35 30° 98° (E) 13:00:24 434.975-435.025
BUGSAT 1 18 Nov 12:58:38 13:01:51 21° 264° (W) 13:05:04 437.445
M-CUBED/EXP-1 PRIME 18 Nov 12:59:25 13:02:25 30° 68° (ENE) 13:05:37 437.505
FALCONSAT 3 18 Nov 12:59:40 13:03:17 53° 1° (N) 13:06:56 435.103
AO-7 18 Nov 13:14:35 13:21:26 30° 61° (ENE) 13:28:17 .
SPROUT 18 Nov 13:20:08 13:22:24 14° 292° (WNW) 13:24:38 437.525
Gurwin Techsat 1B 18 Nov 13:21:55 13:27:00 47° 260° (W) 13:32:08 435.225
Oscar 19 18 Nov 13:22:06 13:26:36 31° 263° (W) 13:31:06 437.125/150
O/OREOS (USA 219) 18 Nov 13:27:00 13:31:35 86° 287° (WNW) 13:36:13 437.305
ITAMSAT 1 18 Nov 13:30:30 13:33:17 15° 65° (ENE) 13:36:05 435.822/435.867
BEESAT 2 18 Nov 13:33:39 13:37:34 57° 245° (WSW) 13:41:26 435.950
VELOX 1 18 Nov 13:34:21 13:37:16 17° 292° (WNW) 13:40:11 145.980
50 SAT 18 Nov 13:34:38 13:37:46 48° 284° (WNW) 13:40:52 437.505
UKube-1 18 Nov 13:41:02 13:45:22 70° 102° (ESE) 13:49:40 .
JUGNU 18 Nov 13:49:45 13:50:28 10° 162° (SSE) 13:51:12 437.505
NO-84 18 Nov 13:55:42 13:56:51 11° 119° (ESE) 13:58:02 435.350 FM
MOZHAYETS 4 18 Nov 14:14:16 14:18:03 25° 97° (E) 14:21:49
AO-85 18 Nov 14:20:23 14:25:05 51° 245° (WSW) 14:30:04 145.980
DX 1 18 Nov 14:29:25 14:32:29 19° 291° (WNW) 14:35:33 434.975-435.025
M-CUBED/EXP-1 PRIME 18 Nov 14:36:00 14:36:58 11° 263° (W) 14:37:57 437.505
FALCONSAT 3 18 Nov 14:38:49 14:42:32 84° 197° (SSW) 14:46:14 435.103
BEESAT 18 Nov 15:01:52 15:06:37 67° 102° (ESE) 15:11:18 436.000
AO-7 18 Nov 15:05:43 15:13:42 53° 257° (WSW) 15:21:47 .
ITAMSAT 1 18 Nov 15:07:05 15:12:13 57° 259° (W) 15:17:22 435.822/435.867
ITUPSAT 1 18 Nov 15:09:28 15:14:13 80° 101° (E) 15:18:58 437.325
DOVE 4 18 Nov 15:21:02 15:25:07 27° 70° (ENE) 15:29:25 437.250
NO-84 18 Nov 15:30:07 15:33:38 50° 314° (NW) 15:37:29 435.350 FM
JUGNU 18 Nov 15:34:45 15:38:48 19° 171° (S) 15:42:50 437.505
MOZHAYETS 4 18 Nov 15:51:26 15:55:03 24° 290° (WNW) 15:58:40
CUBESAT XI-V 18 Nov 15:54:04 15:58:45 75° 101° (ESE) 16:03:26 437.345
YUBILEINY 18 Nov 16:02:18 16:10:31 40° 77° (ENE) 16:18:38 435.215
XW-2D 18 Nov 16:05:05 16:05:55 11° 68° (ENE) 16:06:45 145.860 - 145.880
XW-2B 18 Nov 16:18:15 16:20:31 16° 70° (ENE) 16:22:47 145.730 - 145.750
FALCONSAT 3 18 Nov 16:18:28 16:21:21 21° 210° (SSW) 16:24:13 435.103
CUTE-I 18 Nov 16:19:17 16:23:08 21° 67° (ENE) 16:27:01 437.470
HO-68 18 Nov 16:24:40 16:28:03 14° 58° (ENE) 16:31:25 435.675
KKS-1 18 Nov 16:27:36 16:31:40 34° 98° (E) 16:35:42 437.445
LilacSat-2 18 Nov 16:40:38 16:44:02 34° 74° (ENE) 16:47:28 437.200
RS-15 18 Nov 16:41:37 16:49:45 21° 100° (E) 16:57:54 29.354- 29.394
XW-2C 18 Nov 16:42:25 16:45:47 33° 74° (ENE) 16:49:10 145.795 - 145.815
BEESAT 18 Nov 16:43:03 16:43:44 10° 296° (WNW) 16:44:26 436.000
NUDT-PHONESAT 18 Nov 16:45:27 16:48:22 23° 72° (ENE) 16:51:18 437.300
XW-2F 18 Nov 16:55:41 16:59:15 47° 75° (ENE) 17:02:49 145.980 - 146.000
DOVE 4 18 Nov 16:58:35 17:02:39 27° 265° (W) 17:06:56 437.250
STARS 18 Nov 17:00:24 17:04:16 30° 98° (E) 17:08:05 437.465
SRMSAT 18 Nov 17:14:42 17:17:27 13° 164° (SSE) 17:20:11 437.500
CUTE 1.7 + AOD 2 18 Nov 17:16:56 17:19:55 19° 70° (ENE) 17:22:56 437.475
JUGNU 18 Nov 17:22:41 17:27:10 23° 181° (S) 17:31:41 437.505
KAITUO 1B 18 Nov 17:28:36 17:32:15 75° 259° (WSW) 17:35:56 145.475/437.950
XW-2D 18 Nov 17:36:13 17:39:40 37° 261° (W) 17:43:10 145.860 - 145.880
CUBEBUG 2 18 Nov 17:42:13 17:45:57 24° 71° (ENE) 17:49:37 437.445
XW-2B 18 Nov 17:51:21 17:54:26 25° 263° (W) 17:57:34 145.730 - 145.750
SEEDS 18 Nov 17:52:25 17:56:03 30° 73° (ENE) 17:59:41 437.485
CUTE-I 18 Nov 17:57:48 18:02:49 41° 261° (W) 18:07:53 437.470
YUBILEINY 18 Nov 17:59:15 18:07:04 37° 273° (W) 18:14:53 435.215
KKS-1 18 Nov 18:04:59 18:07:54 17° 292° (WNW) 18:10:48 437.445
HO-68 18 Nov 18:07:32 18:14:44 88° 70° (ENE) 18:21:59 435.675
AAUSAT CUBESAT 2 18 Nov 18:08:51 18:11:45 19° 70° (ENE) 18:14:40 437.432
LilacSat-2 18 Nov 18:17:22 18:18:23 11° 267° (W) 18:19:26 437.200
XW-2C 18 Nov 18:18:53 18:20:01 11° 267° (W) 18:21:11 145.795 - 145.815
NUDT-PHONESAT 18 Nov 18:19:56 18:22:09 15° 265° (W) 18:24:22 437.300
STARS 18 Nov 18:37:16 18:40:20 19° 291° (WNW) 18:43:24 437.465
FO-29 18 Nov 18:37:24 18:37:58 10° 86° (E) 18:38:31 435.910
ZACube-1 18 Nov 18:41:48 18:45:39 31° 73° (ENE) 18:49:27 437.345
UWE-3 18 Nov 18:44:16 18:48:47 70° 77° (ENE) 18:53:11 435.000/436.395/437.385
RS-15 18 Nov 18:48:24 19:00:42 87° 297° (WNW) 19:13:05 29.354- 29.394
XW-2A 18 Nov 18:51:40 18:55:00 87° 62° (ENE) 18:58:19 145.665 - 145.685
CUTE 1.7 + AOD 2 18 Nov 18:52:02 18:55:32 26° 263° (W) 18:59:04 437.475
STRAND 1 18 Nov 18:54:08 18:59:07 52° 100° (E) 19:04:03 437.568
SRMSAT 18 Nov 19:01:31 19:05:57 22° 173° (S) 19:10:24 437.500
JUGNU 18 Nov 19:11:44 19:15:34 18° 191° (S) 19:19:24 437.505
CUBEBUG 2 18 Nov 19:18:33 19:22:23 25° 263° (W) 19:26:11 437.445
SEEDS 18 Nov 19:29:07 19:31:43 16° 266° (W) 19:34:20 437.485
AO-73 18 Nov 19:34:02 19:38:23 67° 258° (WSW) 19:42:39 145.935
AAUSAT CUBESAT 2 18 Nov 19:43:34 19:46:59 25° 264° (W) 19:50:26 437.432
Oscar 11 18 Nov 19:53:45 19:57:59 60° 260° (W) 20:02:14 .
HO-68 18 Nov 20:00:26 20:03:08 12° 268° (W) 20:05:50 435.675
nSIGHT-1 18 Nov 20:12:33 20:15:32 36° 131° (SE) 20:18:31 .
FO-29 18 Nov 20:16:09 20:24:02 75° 102° (ESE) 20:31:22 435.910
ZACube-1 18 Nov 20:18:58 20:21:54 17° 265° (W) 20:24:49 437.345
STRAND 1 18 Nov 20:34:56 20:37:48 15° 294° (WNW) 20:40:39 437.568
DELFI C3 18 Nov 20:39:24 20:43:20 87° 82° (E) 20:47:19 145.870
Max Valier Satellite 18 Nov 20:45:42 20:49:19 69° 77° (ENE) 20:52:58 145.860
ISS 18 Nov 20:47:24 20:50:39 80° 135° (SE) 20:53:55 437.550
SRMSAT 18 Nov 20:49:57 20:54:33 23° 184° (S) 20:59:08 437.500
EO-88 18 Nov 20:50:37 20:54:07 51° 76° (ENE) 20:57:39 145.990 - 145.960
RS-15 18 Nov 21:05:28 21:15:04 25° 320° (NW) 21:24:39 29.354- 29.394
LO-87 18 Nov 21:25:23 21:27:26 15° 70° (ENE) 21:29:29 145.935 - 145.965
SO-50 18 Nov 21:33:12 21:37:36 68° 117° (ESE) 21:42:04 436.795
UNISAT 6 18 Nov 21:48:27 21:52:40 61° 284° (WNW) 21:56:50 437.425
nSIGHT-1 18 Nov 21:49:38 21:51:51 17° 326° (NW) 21:54:04 .
TIGRISAT 18 Nov 21:53:35 21:57:46 58° 285° (WNW) 22:01:55 435.000
PRISM 18 Nov 22:01:53 22:05:59 57° 101° (E) 22:10:03 437.425
FO-29 18 Nov 22:02:48 22:08:05 20° 298° (WNW) 22:13:13 435.910
NO-84 18 Nov 22:07:13 22:10:04 17° 36° (NE) 22:12:53 435.350 FM
AIST 2D 18 Nov 22:10:31 22:12:56 17° 95° (E) 22:15:20 435.315
ESTCUBE 1 18 Nov 22:16:54 22:21:14 54° 75° (ENE) 22:25:37 437.505/2401.250
ISS 18 Nov 22:26:25 22:27:29 11° 330° (NNW) 22:28:34 437.550
SPROUT 18 Nov 22:32:35 22:35:20 17° 69° (ENE) 22:38:05 437.525
SRMSAT 18 Nov 22:39:34 22:43:05 16° 193° (SSW) 22:46:37 437.500
QB50P2 18 Nov 22:47:43 22:50:45 19° 95° (E) 22:53:46 145.880/145.840
VELOX 1 18 Nov 22:50:38 22:53:35 18° 68° (ENE) 22:56:34 145.980
LO-87 18 Nov 22:57:33 23:00:34 25° 263° (W) 23:03:36 145.935 - 145.965
SO-50 18 Nov 23:16:53 23:18:30 12° 312° (NW) 23:20:08 436.795
RS-15 18 Nov 23:33:11 23:34:22 10° 356° (N) 23:35:31 29.354- 29.394
DUCHIFAT 1 18 Nov 23:40:44 23:44:51 60° 101° (E) 23:48:57 145.980
O/OREOS (USA 219) 18 Nov 23:41:38 23:46:12 84° 72° (ENE) 23:50:41 437.305
AIST 2D 18 Nov 23:43:23 23:45:57 19° 288° (WNW) 23:48:31 435.315
NO-84 18 Nov 23:43:33 23:47:46 62° 232° (SW) 23:51:50 435.350 FM
EO-79 18 Nov 23:44:42 23:48:54 88° 291° (WNW) 23:53:05 145.935-145.965
DX 1 18 Nov 23:44:52 23:47:26 15° 67° (ENE) 23:50:00 434.975-435.025
NANOSAT C BR1 18 Nov 23:49:44 23:53:55 87° 283° (WNW) 23:58:06 145.865
PCSat 18 Nov 23:52:34 23:57:52 60° 112° (ESE) 00:03:12 145.827
ESTCUBE 1 18 Nov 23:57:39 23:58:17 10° 268° (W) 23:58:55 437.505/2401.250
50 SAT 18 Nov 23:57:52 00:00:10 18° 72° (ENE) 00:02:28 437.505
POLYITAN 1 18 Nov 23:59:21 00:03:27 56° 285° (WNW) 00:07:32 437.675
Oscar 19 19 Nov 00:01:03 00:02:54 12° 93° (E) 00:04:45 437.125/150
SPROUT 19 Nov 00:07:04 00:10:55 32° 262° (W) 00:14:47 437.525
QB50P2 19 Nov 00:22:58 00:26:28 26° 289° (WNW) 00:29:56 145.880/145.840
VELOX 1 19 Nov 00:25:46 00:29:44 33° 262° (W) 00:33:44 145.980
UKube-1 19 Nov 00:31:01 00:34:50 32° 72° (ENE) 00:38:41 .
BUGSAT 1 19 Nov 00:43:36 00:47:37 77° 100° (E) 00:51:37 437.445
MOZHAYETS 4 19 Nov 01:12:48 01:15:25 15° 68° (ENE) 01:18:00
DX 1 19 Nov 01:19:13 01:23:14 37° 261° (W) 01:27:18 434.975-435.025
50 SAT 19 Nov 01:30:15 01:32:09 15° 264° (W) 01:34:05 437.505
Oscar 19 19 Nov 01:37:26 01:42:31 62° 286° (WNW) 01:47:36 437.125/150
PCSat 19 Nov 01:38:13 01:41:37 17° 308° (NW) 01:45:03 145.827
Gurwin Techsat 1B 19 Nov 01:42:27 01:47:48 82° 284° (WNW) 01:53:06 435.225
